Location: Saint-Palais-sur-Mer
(45.6429°N, 1.0859°W)
Time: 01:01:05
(UTC+01:00)

Tiros 1 despin weight - Pass Details

Date: 10 February 2026
Orbit: 556 x 593 km, 48.2° (Epoch: 13 March)

Event Time Altitude Azimuth Distance (km) Brightness Sun altitude
Rises 00:25:21 0° 289° (WNW) 2,748 - -56.8°
Reaches altitude 10° 00:27:37 10° 285° (WNW) 1,855 - -57.0°
Maximum altitude 00:31:47 58° 207° (SSW) 663 - -57.3°
Drops below altitude 10° 00:35:59 10° 128° (SE) 1,871 - -57.5°
Sets 00:38:17 0° 125° (SE) 2,774 - -57.6°
